Regional Weather Roundup
Issued by NWS Sioux Falls, SD

Home | Current Version | Previous Version | Text Only | Print | Product List | Glossary On
Versions: 1 2 3 4 5 6 7 8 9 10 11 12 13 14 15 16 17 18 19 20 21 22 23 24 25 26 27 28 29 30 31 32 33 34 35 36 37 38 39 40 41 42 43 44 45 46 47 48 49 50
000
ASUS43 KFSD 291710
RWRFSD

WEATHER ROUNDUP FOR SE SOUTH DAKOTA/SW MINNESOTA/NW IOWA
NATIONAL WEATHER SERVICE SIOUX FALLS SD
1100 AM CST THU JAN 29 2015

NOTE: "FAIR" INDICATES FEW OR NO CLOUDS BELOW 12,000 FEET WITH NO
SIGNIFICANT WEATHER AND OR OBSTRUCTIONS TO VISIBILITY.


SDZ038>040-050-052>070-291800-
SOUTHEAST SOUTH DAKOTA

CITY           SKY/WX    TMP DP  RH WIND       PRES   REMARKS
CHAMBERLAIN    SUNNY     33  24  68 N18G26    30.47R WCI  22
HURON          CLOUDY    30  21  69 NW21G28   30.45R WCI  17
MADISON        CLOUDY    28  28 100 N21G30    30.39R WCI  15
MITCHELL         N/A     34  25  69 MISG      30.45R
SIOUX FALLS    CLOUDY    32  23  69 N20G33    30.39R WCI  20
WINNER         FAIR      38  23  55 NW25G32   30.46R
YANKTON        CLOUDY    36  27  69 NW20      30.44R
$$

MNZ071-072-080-081-089-090-097-098-291800-
SOUTHWEST MINNESOTA

CITY           SKY/WX    TMP DP  RH WIND       PRES   REMARKS
FAIRMONT       CLOUDY    30  21  69 NW21G32   30.27R WCI  17
JACKSON        CLOUDY    30  27  86 NW23G30   30.30R WCI  17
LUVERNE        CLOUDY    32  27  80 N14G21    30.37R WCI  22
MARSHALL       CLOUDY    27  19  74 N23       30.39R WCI  12
MONTEVIDEO     CLOUDY    25  19  80 N21G29    30.39R WCI  10
PIPESTONE      CLOUDY    28  25  86 N13G24    30.34R WCI  18
REDWOOD FALLS  CLOUDY    27  18  69 NW22G36   30.34R WCI  13
TRACY          CLOUDY    28  24  86 N21G28    30.36R WCI  15
WINDOM         CLOUDY    27  21  80 NW29      30.32R WCI  11
WORTHINGTON    CLOUDY    28  21  74 N28G33    30.35R WCI  13
$$

IAZ001>003-012>014-020>022-031-032-NEZ013-014-SDZ071-291800-
NORTHWEST IOWA

CITY           SKY/WX    TMP DP  RH WIND       PRES   REMARKS
CHEROKEE       CLOUDY    33  28  83 NW18G24   30.35R WCI  21
DENISON        CLOUDY    34  28  80 NW20G28   30.33R WCI  22
ESTHERVILLE    CLOUDY    29  24  82 NW25G33   30.30R WCI  14
LE MARS        CLOUDY    34  28  80 NW15      30.39R WCI  24
ORANGE CITY    CLOUDY    34  27  75 NW15G26   30.36R WCI  24
SHELDON        CLOUDY    32  27  80 N21G29    30.34R WCI  20
SIOUX CITY     CLOUDY    35  27  72 NW22G32   30.39R WCI  23
SPENCER        CLOUDY    32  24  72 NW30G36   30.32R WCI  18
STORM LAKE     CLOUDY    32  28  86 NW23G29   30.33R WCI  19
$$

ABBREVIATIONS USED IN REMARKS
   TC - TEMPERATURE IN CELSIUS
  WCI - WIND CHILL INDEX
   HX - HEAT INDEX
  VSB - VISIBILITY




USA.gov is the U.S. government's official web portal to all federal, state and local government web resources and services.